Montana Department of Transportation

Main Content

Accidents and Incidents Report

Hourly Weather Roundup

ASUS45 KTFX 242010
RWRMT 
MONTANA REGIONAL WEATHER ROUNDUP
NATIONAL WEATHER SERVICE GREAT FALLS MT
200 PM MDT MON JUL 24 2017

NOTE: "FAIR" INDICATES FEW OR NO CLOUDS BELOW 12000 FEET WITH NO
SIGNIFICANT WEATHER AND/OR OBSTRUCTIONS TO VISIBILITY.

MTZ001.007-043-242100-
WEST OF THE DIVIDE
  
CITY           SKY/WX    TMP DP  RH WIND       PRES   REMARKS
KALISPELL      SUNNY     86  41  20 NW7       29.86F                  
MISSOULA       SUNNY     92  38  15 W16       29.89F                  
BUTTE          CLOUDY    84  32  15 W14G20    30.03F                  
MULLAN PASS    SUNNY     70  33  25 CALM      30.12S                  
ANACONDA         N/A     84  36  17 W13G20    29.98F                  
DEER LODGE       N/A     86  39  19 W5        29.97F                  
EUREKA           N/A     81  34  18 MISG      29.90F                  
HAMILTON         N/A     88  41  19 SW10      29.92S                  
LIBBY            N/A     84  34  16 NW5G16    29.87F                  
PLAINS           N/A     87  38  17 W9        29.89F                  
THOMPSON FALLS   N/A     90  34  13 W12       29.92F                  
--------------------------------

MTZ008-052.055-242100-
SOUTHWEST MONTANA
  
CITY           SKY/WX    TMP DP  RH WIND       PRES   REMARKS
BOZEMAN        SUNNY     90  45  21 NE6       29.96F                  
DILLON         SUNNY     83  49  30 SW12      30.00F                  
W YELLOWSTONE  SUNNY     82  34  17 W12G17    30.15F                  
ENNIS          SUNNY     86  32  14 NW6G15    30.07S                  
--------------------------------

MTZ009-010-012-014-046-048-049-054-242100-
EAST SLOPES AND CENTRAL MONTANA
  
CITY           SKY/WX    TMP DP  RH WIND       PRES   REMARKS
CUT BANK       SUNNY     71  35  26 VRB7      29.95F                  
GREAT FALLS    SUNNY     76  45  33 E7        29.92F                  
HELENA         SUNNY     91  40  16 W15G23    29.88F                  
CHOTEAU          N/A     75  41  29 E7        29.96F                  
CONRAD           N/A     72  46  39 N1        29.98F                  
--------------------------------

MTZ011-013-016-021-045-047-050-051-242100-
NORTH CENTRAL MONTANA
  
CITY           SKY/WX    TMP DP  RH WIND       PRES   REMARKS
HAVRE          MOSUNNY   75  40  28 MISG      29.92F                  
LEWISTOWN      CLOUDY    76  48  37 VRB5      29.97F                  
N BAR RANCH      N/A     81  45  28 E7        30.00S                  
CHINOOK          N/A     73  39  29 W13       29.91F                  
--------------------------------

MTZ017.020-022.027-061-062-242100-
NORTHEAST MONTANA
  
CITY           SKY/WX    TMP DP  RH WIND       PRES   REMARKS
GLASGOW        CLOUDY    83  44  25 NW14      29.86S                  
JORDAN           N/A     83  48  29 N14G23    29.88F                  
SIDNEY         SUNNY     94  51  23 N18G25    29.76R HX  91           
WOLF POINT     MOSUNNY   90  50  25 N12G20    29.82R                  
MALTA          SUNNY     79  45  29 W9G16     29.89F                  
PLENTYWOOD       N/A     82  52  34 NW17G24   29.82S                  
POPLAR           N/A     86  54  32 N9G18     29.82R                  
SCOBEY           N/A     82  42  24 NW9       29.86R                  
--------------------------------

MTZ028.42-056.058-242100-
SOUTHCENTRAL AND SOUTHEAST MONTANA
  
CITY           SKY/WX    TMP DP  RH WIND       PRES   REMARKS
BAKER          SUNNY     98  45  16 W9G18     29.82S HX  94           
BILLINGS       MOSUNNY   90  41  18 VRB7      29.91F                  
LIVINGSTON     SUNNY     92  40  16 NW16      29.95F                  
MILES CITY     SUNNY     94  47  20 N20G25    29.83S HX  90           
BIG TIMBER     SUNNY     91  39  16 W16       29.96F                  
EKALAKA          N/A     96  47  18 W8        29.85F HX  92           
FORSYTH          N/A     90  48  24 N10       29.85F                  
LAUREL           N/A     91  42  18 NE2       29.92S--------------------------------

REGIONAL REPORTS...DAKOTAS
  
CITY           SKY/WX    TMP DP  RH WIND       PRES   REMARKS
WILLISTON      SUNNY     96  49  20 N13       29.75S HX  93           
MINOT          SUNNY     96  57  27 S16       29.74F HX  95           
DICKINSON      SUNNY     96  55  25 SE8G21    29.78F HX  94           
BEACH            N/A     95  46  18 NW7G18    29.83R HX  91           
CROSBY           N/A     86  55  35 N20       29.79R                  
TIOGA            N/A     91  50  24 W13G20    29.77F                  
WATFORD CITY     N/A     97  52  21 CALM      29.73F HX  94           
BISMARCK       SUNNY     88  62  41 S16       29.82S                  
GRAND FORKS    CLOUDY    80  65  59 S16G23    29.89F                  
FARGO          MOSUNNY   80  63  55 S20G26    29.93                   
BUFFALO SD       N/A     93  54  26 S7        29.77F HX  91           
RAPID CITY     SUNNY     97  52  21 NE15      29.84F HX  94           
--------------------------------

REGIONAL REPORTS...WYOMING/IDAHO/WASHINGTON
  
CITY           SKY/WX    TMP DP  RH WIND       PRES   REMARKS
GILLETTE       SUNNY     96  35  11 NW8       29.92F HX  91           
SHERIDAN       SUNNY     94  41  16 NW13      29.92S HX  90           
BUFFALO WY     SUNNY     91  37  15 N12       29.99F                  
CODY           SUNNY     88  41  19 N7        29.99F                  
YELLOWSTONE LA   N/A     77  28  16 CALM      30.25F                  
IDAHO FALLS    MOSUNNY   90  27  10 N3        30.02F                  
BOISE          PTSUNNY   92  47  21 W8        29.89F                  
SPOKANE        MOSUNNY   80  25  13 NW8       29.98S                  
--------------------------------

REGIONAL REPORTS...ALBERTA
  
CITY           SKY/WX    TMP DP  RH WIND       PRES   REMARKS
EDMONTON       LGT RAIN  54  52  94 W28G37    29.79R                  
CALGARY        PTSUNNY   70  36  28 N15       29.92F                  
LETHBRIDGE     MOSUNNY   70  39  32 VRB6      29.92F                  
MEDICINE HAT   SUNNY     73  37  27 W9G20     29.91F                  
WATERTON GATE    N/A     72  41  33 NE3         N/A                   
MILK RIVER       N/A     70  37  30 E3          N/A                   
--------------------------------

REGIONAL REPORTS...SASKATCHEWAN
  
CITY           SKY/WX    TMP DP  RH WIND       PRES   REMARKS
SWIFT CURRENT  SUNNY     72  39  30 W17G28    29.87R                  
REGINA         MOSUNNY   77  48  36 NW18G26   29.79S                  
SASKATOON      MOSUNNY   72  43  35 W26G32    29.73S                  
CYPRESS HILLS    N/A     64  36  34 NW6         N/A                   
VAL MARIE        N/A     77  37  24 NW12G20     N/A                   
ROCKGLEN         N/A     75  36  23 NW13G20     N/A                   
--------------------------------